Time,TemperatureF,DewpointF,PressureIn,WindDirection,WindDirectionDegrees,WindSpeedMPH,WindSpeedGustMPH,Humidity,HourlyPrecipIn,Conditions,Clouds,dailyrainin,SoftwareType,DateUTC
2013-07-15 00:02:00,55.0,35.0,30.16,South,180,1.0,3.0,47,0.00,,,0.00,,2013-07-15 06:02:00,
2013-07-15 00:11:00,55.0,35.0,30.16,South,180,0.0,2.0,47,0.00,,,0.00,,2013-07-15 06:11:00,
2013-07-15 00:22:00,54.0,35.0,30.16,SE,135,2.0,3.0,48,0.00,,,0.00,,2013-07-15 06:22:00,
2013-07-15 00:32:00,54.0,35.0,30.15,South,180,2.0,3.0,48,0.00,,,0.00,,2013-07-15 06:32:00,
2013-07-15 00:42:00,54.0,35.0,30.15,South,180,2.0,4.0,48,0.00,,,0.00,,2013-07-15 06:42:00,
2013-07-15 00:53:00,54.0,35.0,30.15,SE,135,2.0,2.0,48,0.00,,,0.00,,2013-07-15 06:53:00,
2013-07-15 01:01:00,53.0,34.0,30.15,East,90,0.0,2.0,49,0.00,,,0.00,,2013-07-15 07:01:00,
2013-07-15 01:11:00,53.0,34.0,30.15,SE,135,2.0,3.0,49,0.00,,,0.00,,2013-07-15 07:11:00,
2013-07-15 01:21:00,53.0,34.0,30.14,SE,135,2.0,4.0,48,0.00,,,0.00,,2013-07-15 07:21:00,
2013-07-15 01:43:00,52.0,33.0,30.15,SE,135,0.0,4.0,49,0.00,,,0.00,,2013-07-15 07:43:00,
2013-07-15 01:53:00,52.0,33.0,30.16,South,180,3.0,4.0,49,0.00,,,0.00,,2013-07-15 07:53:00,
2013-07-15 02:01:00,52.0,33.0,30.15,SE,135,2.0,4.0,49,0.00,,,0.00,,2013-07-15 08:01:00,
2013-07-15 02:11:00,52.0,33.0,30.15,South,180,2.0,3.0,48,0.00,,,0.00,,2013-07-15 08:11:00,
2013-07-15 02:32:00,51.0,31.0,30.14,South,180,2.0,4.0,47,0.00,,,0.00,,2013-07-15 08:32:00,
2013-07-15 02:43:00,51.0,31.0,30.14,SE,135,2.0,3.0,47,0.00,,,0.00,,2013-07-15 08:43:00,
2013-07-15 02:53:00,51.0,31.0,30.14,SE,135,2.0,2.0,47,0.00,,,0.00,,2013-07-15 08:53:00,
2013-07-15 03:01:00,51.0,31.0,30.14,NE,45,0.0,3.0,47,0.00,,,0.00,,2013-07-15 09:01:00,
2013-07-15 03:11:00,51.0,31.0,30.14,SE,135,2.0,4.0,46,0.00,,,0.00,,2013-07-15 09:11:00,
2013-07-15 03:22:00,51.0,31.0,30.14,South,180,2.0,4.0,46,0.00,,,0.00,,2013-07-15 09:22:00,
2013-07-15 03:32:00,51.0,30.0,30.14,South,180,2.0,3.0,45,0.00,,,0.00,,2013-07-15 09:32:00,
2013-07-15 03:42:00,50.0,30.0,30.14,South,180,2.0,3.0,46,0.00,,,0.00,,2013-07-15 09:42:00,
2013-07-15 03:52:00,50.0,30.0,30.14,SE,135,2.0,4.0,46,0.00,,,0.00,,2013-07-15 09:52:00,
2013-07-15 04:02:00,50.0,30.0,30.15,South,180,2.0,3.0,46,0.00,,,0.00,,2013-07-15 10:02:00,
2013-07-15 04:11:00,50.0,30.0,30.14,SE,135,1.0,3.0,46,0.00,,,0.00,,2013-07-15 10:11:00,
2013-07-15 04:21:00,50.0,30.0,30.14,SE,135,2.0,3.0,46,0.00,,,0.00,,2013-07-15 10:21:00,
2013-07-15 04:32:00,50.0,31.0,30.14,SE,135,2.0,4.0,47,0.00,,,0.00,,2013-07-15 10:32:00,
2013-07-15 04:42:00,49.0,30.0,30.14,SE,135,2.0,3.0,48,0.00,,,0.00,,2013-07-15 10:42:00,
2013-07-15 04:52:00,49.0,30.0,30.14,SE,135,2.0,2.0,48,0.00,,,0.00,,2013-07-15 10:52:00,
2013-07-15 05:01:00,49.0,30.0,30.14,South,180,2.0,4.0,48,0.00,,,0.00,,2013-07-15 11:01:00,
2013-07-15 05:11:00,49.0,30.0,30.15,South,180,3.0,4.0,48,0.00,,,0.00,,2013-07-15 11:11:00,
2013-07-15 05:21:00,49.0,30.0,30.14,South,180,4.0,6.0,48,0.00,,,0.00,,2013-07-15 11:21:00,
2013-07-15 05:32:00,49.0,31.0,30.14,South,180,3.0,4.0,49,0.00,,,0.00,,2013-07-15 11:32:00,
2013-07-15 05:42:00,49.0,31.0,30.14,SE,135,2.0,4.0,49,0.00,,,0.00,,2013-07-15 11:42:00,
2013-07-15 05:52:00,48.0,30.0,30.14,SE,135,1.0,3.0,49,0.00,,,0.00,,2013-07-15 11:52:00,
2013-07-15 06:01:00,48.0,30.0,30.14,South,180,2.0,3.0,49,0.00,,,0.00,,2013-07-15 12:01:00,
2013-07-15 06:11:00,48.0,30.0,30.14,South,180,2.0,4.0,49,0.00,,,0.00,,2013-07-15 12:11:00,
2013-07-15 06:22:00,48.0,30.0,30.14,South,180,2.0,3.0,50,0.00,,,0.00,,2013-07-15 12:22:00,
2013-07-15 06:32:00,48.0,30.0,30.14,South,180,2.0,3.0,49,0.00,,,0.00,,2013-07-15 12:32:00,
2013-07-15 06:42:00,48.0,30.0,30.14,SE,135,2.0,2.0,49,0.00,,,0.00,,2013-07-15 12:42:00,
2013-07-15 06:52:00,49.0,31.0,30.14,South,180,1.0,3.0,49,0.00,,,0.00,,2013-07-15 12:52:00,
2013-07-15 07:01:00,49.0,31.0,30.14,SE,135,0.0,4.0,49,0.00,,,0.00,,2013-07-15 13:01:00,
2013-07-15 07:11:00,49.0,31.0,30.14,SE,135,1.0,3.0,49,0.00,,,0.00,,2013-07-15 13:11:00,
2013-07-15 07:32:00,51.0,33.0,30.14,SE,135,1.0,4.0,50,0.00,,,0.00,,2013-07-15 13:32:00,
2013-07-15 07:43:00,52.0,34.0,30.14,South,180,2.0,5.0,50,0.00,,,0.00,,2013-07-15 13:43:00,
2013-07-15 07:53:00,52.0,34.0,30.14,South,180,3.0,5.0,50,0.00,,,0.00,,2013-07-15 13:53:00,
2013-07-15 08:02:00,53.0,36.0,30.14,SW,225,2.0,4.0,52,0.00,,,0.00,,2013-07-15 14:02:00,
2013-07-15 08:11:00,54.0,37.0,30.14,SW,225,2.0,4.0,52,0.00,,,0.00,,2013-07-15 14:11:00,
2013-07-15 08:33:00,57.0,40.0,30.14,West,270,1.0,2.0,53,0.00,,,0.00,,2013-07-15 14:33:00,
2013-07-15 08:42:00,58.0,39.0,30.14,SW,225,0.0,3.0,50,0.00,,,0.00,,2013-07-15 14:42:00,
2013-07-15 13:32:00,86.0,41.0,30.12,NW,315,2.0,8.0,21,0.00,,,0.00,,2013-07-15 19:32:00,
2013-07-15 13:53:00,86.0,44.0,30.12,NW,315,9.0,15.0,23,0.00,,,0.00,,2013-07-15 19:53:00,
2013-07-15 14:02:00,85.0,43.0,30.12,West,270,3.0,13.0,23,0.00,,,0.00,,2013-07-15 20:02:00,
2013-07-15 14:12:00,84.0,41.0,30.12,SW,225,2.0,10.0,22,0.00,,,0.00,,2013-07-15 20:12:00,
2013-07-15 14:22:00,84.0,42.0,30.12,SW,225,2.0,11.0,23,0.00,,,0.00,,2013-07-15 20:22:00,
2013-07-15 14:32:00,84.0,40.0,30.12,SW,225,3.0,12.0,21,0.00,,,0.00,,2013-07-15 20:32:00,
2013-07-15 14:43:00,85.0,39.0,30.12,NW,315,4.0,11.0,20,0.00,,,0.00,,2013-07-15 20:43:00,
2013-07-15 14:53:00,84.0,37.0,30.12,North,0,4.0,10.0,19,0.00,,,0.00,,2013-07-15 20:53:00,
2013-07-15 15:12:00,86.0,40.0,30.12,NW,315,8.0,15.0,20,0.00,,,0.00,,2013-07-15 21:12:00,
2013-07-15 15:32:00,86.0,39.0,30.12,NW,315,4.0,10.0,19,0.00,,,0.00,,2013-07-15 21:32:00,
2013-07-15 15:43:00,86.0,38.0,30.12,West,270,7.0,14.0,18,0.00,,,0.00,,2013-07-15 21:43:00,
2013-07-15 15:52:00,86.0,39.0,30.12,NW,315,5.0,11.0,19,0.00,,,0.00,,2013-07-15 21:52:00,
2013-07-15 16:02:00,86.0,38.0,30.12,NW,315,6.0,11.0,18,0.00,,,0.00,,2013-07-15 22:02:00,
2013-07-15 16:12:00,86.0,38.0,30.12,West,270,2.0,12.0,18,0.00,,,0.00,,2013-07-15 22:12:00,
2013-07-15 16:33:00,85.0,35.0,30.11,NW,315,8.0,12.0,17,0.00,,,0.00,,2013-07-15 22:33:00,
2013-07-15 16:43:00,85.0,37.0,30.11,West,270,4.0,11.0,18,0.00,,,0.00,,2013-07-15 22:43:00,
2013-07-15 16:53:00,85.0,37.0,30.11,NW,315,5.0,14.0,18,0.00,,,0.00,,2013-07-15 22:53:00,
2013-07-15 17:02:00,85.0,37.0,30.11,NW,315,3.0,8.0,18,0.00,,,0.00,,2013-07-15 23:02:00,
2013-07-15 17:11:00,85.0,35.0,30.11,North,0,6.0,12.0,17,0.00,,,0.00,,2013-07-15 23:11:00,
2013-07-15 17:22:00,85.0,37.0,30.11,West,270,4.0,11.0,18,0.00,,,0.00,,2013-07-15 23:22:00,
2013-07-15 17:33:00,85.0,37.0,30.12,NW,315,6.0,17.0,18,0.00,,,0.00,,2013-07-15 23:33:00,
2013-07-15 17:43:00,85.0,37.0,30.11,West,270,4.0,13.0,18,0.00,,,0.00,,2013-07-15 23:43:00,
2013-07-15 17:53:00,84.0,37.0,30.11,NW,315,4.0,15.0,19,0.00,,,0.00,,2013-07-15 23:53:00,
2013-07-15 18:02:00,84.0,37.0,30.11,NW,315,4.0,11.0,19,0.00,,,0.00,,2013-07-16 00:02:00,
2013-07-15 18:12:00,85.0,38.0,30.11,SW,225,8.0,12.0,19,0.00,,,0.00,,2013-07-16 00:12:00,
2013-07-15 18:22:00,85.0,38.0,30.11,West,270,10.0,16.0,19,0.00,,,0.00,,2013-07-16 00:22:00,
2013-07-15 18:42:00,84.0,37.0,30.11,SW,225,6.0,14.0,19,0.00,,,0.00,,2013-07-16 00:42:00,
2013-07-15 18:52:00,83.0,38.0,30.11,NW,315,4.0,9.0,20,0.00,,,0.00,,2013-07-16 00:52:00,
2013-07-15 19:02:00,83.0,39.0,30.11,NW,315,2.0,10.0,21,0.00,,,0.00,,2013-07-16 01:02:00,
2013-07-15 19:12:00,83.0,39.0,30.10,SW,225,4.0,7.0,21,0.00,,,0.00,,2013-07-16 01:12:00,
2013-07-15 19:22:00,83.0,39.0,30.10,West,270,3.0,9.0,21,0.00,,,0.00,,2013-07-16 01:22:00,
2013-07-15 19:43:00,83.0,39.0,30.11,North,0,5.0,8.0,21,0.00,,,0.00,,2013-07-16 01:43:00,
2013-07-15 19:53:00,82.0,39.0,30.11,West,270,4.0,7.0,22,0.00,,,0.00,,2013-07-16 01:53:00,
2013-07-15 20:02:00,82.0,41.0,30.11,West,270,4.0,6.0,23,0.00,,,0.00,,2013-07-16 02:02:00,
2013-07-15 20:11:00,81.0,40.0,30.11,SW,225,2.0,7.0,23,0.00,,,0.00,,2013-07-16 02:11:00,
2013-07-15 20:33:00,80.0,39.0,30.12,SW,225,1.0,6.0,23,0.00,,,0.00,,2013-07-16 02:33:00,
2013-07-15 20:43:00,79.0,39.0,30.11,West,270,1.0,4.0,24,0.00,,,0.00,,2013-07-16 02:43:00,
2013-07-15 20:53:00,78.0,40.0,30.12,NW,315,1.0,2.0,26,0.00,,,0.00,,2013-07-16 02:53:00,
2013-07-15 21:12:00,76.0,40.0,30.11,SE,135,0.0,2.0,27,0.00,,,0.00,,2013-07-16 03:12:00,
2013-07-15 21:43:00,71.0,40.0,30.13,South,180,2.0,4.0,32,0.00,,,0.00,,2013-07-16 03:43:00,
2013-07-15 21:53:00,70.0,40.0,30.14,South,180,2.0,3.0,34,0.00,,,0.00,,2013-07-16 03:53:00,
2013-07-15 22:01:00,68.0,40.0,30.14,South,180,2.0,3.0,36,0.00,,,0.00,,2013-07-16 04:01:00,
2013-07-15 22:32:00,65.0,39.0,30.15,South,180,2.0,4.0,39,0.00,,,0.00,,2013-07-16 04:32:00,
2013-07-15 22:43:00,63.0,39.0,30.16,East,90,0.0,2.0,41,0.00,,,0.00,,2013-07-16 04:43:00,
2013-07-15 22:53:00,63.0,39.0,30.16,SE,135,2.0,4.0,41,0.00,,,0.00,,2013-07-16 04:53:00,
2013-07-15 23:01:00,61.0,38.0,30.17,SE,135,2.0,4.0,42,0.00,,,0.00,,2013-07-16 05:01:00,
2013-07-15 23:11:00,60.0,37.0,30.17,South,180,2.0,4.0,43,0.00,,,0.00,,2013-07-16 05:11:00,
2013-07-15 23:21:00,60.0,36.0,30.17,West,270,0.0,1.0,41,0.00,,,0.00,,2013-07-16 05:21:00,
2013-07-15 23:32:00,60.0,38.0,30.18,SW,225,0.0,4.0,44,0.00,,,0.00,,2013-07-16 05:32:00,
2013-07-15 23:52:00,59.0,40.0,30.20,NW,315,1.0,4.0,49,0.00,,,0.00,,2013-07-16 05:52:00,